KD8BMB Weather Reports


time (UTC)temp
C
wind
direction
speed
KPH
gust
KPH
rain 1hr
cm
rain 24hr
cm
rain mn
cm
humidity
%
barometer
mb
20260901012213 22 231 4.8 4.8 0.00 0.20 0.20 87 1013.0
20260901011709 22 297 0.0 0.0 0.00 0.20 0.20 88 1013.1
20260901011208 22 260 1.6 3.2 0.00 0.20 0.20 86 1013.0
20260901010702 22 270 0.0 1.6 0.00 0.20 0.20 88 1013.0
20260901010157 22 346 0.0 0.0 0.00 0.20 0.20 89 1012.9
20260901005656 22 267 0.0 0.0 0.00 0.20 0.20 89 1012.6
20260901005152 22 303 0.0 0.0 0.00 0.20 0.20 89 1013.0
20260901004651 22 284 0.0 0.0 0.00 0.20 0.20 88 1012.7
20260901004145 22 305 0.0 0.0 0.00 0.20 0.20 87 1012.7
20260901003635 22 286 0.0 0.0 0.00 0.20 0.20 87 1012.5
20260901003134 23 281 0.0 0.0 0.00 0.20 0.20 86 1012.7
20260901002634 23 298 3.2 3.2 0.00 0.20 0.20 86 1012.4
20260901002128 23 326 0.0 0.0 0.00 0.20 0.20 85 1012.6
20260901001624 23 294 0.0 0.0 0.00 0.20 0.20 85 1012.3
20260901001119 23 333 0.0 0.0 0.00 0.20 0.20 86 1012.4
20260901000614 23 277 0.0 0.0 0.00 0.20 0.20 86 1012.1
20260901000109 23 299 0.0 0.0 0.00 0.20 0.20 86 1012.2
20260831235603 23 258 1.6 1.6 0.00 0.20 0.20 85 1012.0
20260831235059 23 231 0.0 0.0 0.00 0.20 0.20 85 1012.1
20260831234552 23 287 0.0 0.0 0.00 0.20 0.20 84 1012.0
20260831234048 23 321 1.6 3.2 0.00 0.20 0.20 84 1012.2
20260831233543 23 52 0.0 1.6 0.00 0.20 0.20 84 1012.0
20260831233039 24 319 1.6 1.6 0.00 0.20 0.20 83 1011.9
20260831232534 24 299 0.0 1.6 0.00 0.20 0.20 83 1012.0
20260831232030 24 81 0.0 1.6 0.00 0.20 0.20 83 1012.2
20260831231526 25 197 1.6 1.6 0.00 0.20 0.20 83 1012.3
20260831231021 25 292 1.6 3.2 0.00 0.20 0.20 81 1012.0
20260831230516 25 351 0.0 0.0 0.00 0.20 0.20 81 1012.3
20260831230011 25 278 0.0 1.6 0.00 0.20 0.20 82 1012.3
20260831225507 24 312 1.6 1.6 0.00 0.20 0.20 83 1012.2
20260831225006 25 344 0.0 0.0 0.00 0.20 0.20 83 1012.4
20260831224501 25 46 1.6 3.2 0.00 0.20 0.20 81 1012.5
20260831223956 25 87 3.2 3.2 0.00 0.20 0.20 78 1012.9
20260831223452 26 307 1.6 1.6 0.00 0.20 0.20 78 1013.0
20260831222948 26 313 1.6 3.2 0.00 0.20 0.20 79 1012.6
20260831222444 26 292 1.6 3.2 0.00 0.20 0.20 79 1012.9
20260831221944 25 87 0.0 1.6 0.00 0.20 0.20 79 1013.0
20260831221440 26 134 1.6 3.2 0.00 0.20 0.20 80 1012.7
20260831220935 26 189 3.2 3.2 0.00 0.20 0.20 79 1013.0
20260831220430 25 224 3.2 4.8 0.00 0.20 0.20 80 1013.1
20260831215925 25 228 4.8 4.8 0.00 0.20 0.20 82 1012.7
20260831215421 25 205 1.6 3.2 0.00 0.20 0.20 84 1013.2
20260831214917 25 182 8.0 9.7 0.30 0.20 0.20 85 1013.2
20260831214414 26 167 0.0 1.6 0.30 0.20 0.20 82 1013.4
20260831213910 25 208 1.6 3.2 0.00 0.15 0.15 82 1013.3
20260831213406 25 286 1.6 3.2 0.00 0.15 0.15 84 1013.3
20260831212901 25 246 3.2 3.2 0.00 0.15 0.15 86 1013.6
20260831212357 25 293 1.6 1.6 0.00 0.15 0.15 88 1013.3
20260831211856 25 194 4.8 4.8 0.00 0.15 0.15 88 1013.6
20260831211356 25 300 1.6 1.6 0.00 0.15 0.15 88 1013.4
20260831210856 25 294 1.6 3.2 0.00 0.15 0.15 88 1013.4
20260831210351 25 182 3.2 3.2 0.00 0.15 0.15 88 1013.4
20260831205847 25 250 1.6 1.6 0.00 0.15 0.15 90 1013.3
20260831205343 25 293 3.2 3.2 0.00 0.15 0.15 89 1013.9
20260831204837 25 307 0.0 1.6 0.00 0.15 0.15 90 1013.5
20260831204336 25 175 1.6 4.8 0.00 0.15 0.15 91 1013.8
20260831203836 25 28 0.0 1.6 0.00 0.15 0.15 91 1013.6
20260831203331 25 182 1.6 8.0 0.00 0.15 0.15 90 1013.7
20260831202829 25 178 0.0 0.0 0.00 0.15 0.15 90 1013.5
20260831202325 25 216 4.8 4.8 0.00 0.15 0.15 90 1013.7
20260831201824 25 348 3.2 3.2 0.00 0.15 0.15 90 1013.7
20260831201323 25 231 3.2 3.2 0.00 0.15 0.15 89 1013.8
20260831200819 25 303 1.6 1.6 0.00 0.15 0.15 89 1013.6
20260831200314 25 76 0.0 0.0 0.00 0.15 0.15 89 1013.7
20260831195809 25 238 3.2 4.8 0.00 0.15 0.15 88 1013.7
20260831195306 25 315 1.6 1.6 0.00 0.15 0.15 88 1013.9
20260831194800 25 223 0.0 0.0 0.00 0.15 0.15 88 1014.2
20260831194255 25 305 1.6 3.2 0.00 0.15 0.15 87 1014.3
20260831193749 25 115 1.6 1.6 0.00 0.15 0.15 87 1014.4
20260831193244 25 54 1.6 1.6 0.00 0.15 0.15 86 1014.4
20260831192739 25 233 4.8 8.0 0.00 0.15 0.15 85 1014.7
20260831192234 25 64 4.8 8.0 0.00 0.15 0.15 85 1014.9
20260831191730 25 49 11.3 16.1 0.00 0.15 0.15 84 1014.8
20260831191226 25 53 1.6 8.0 0.00 0.15 0.15 87 1014.7
20260831190721 24 74 1.6 3.2 0.00 0.15 0.15 88 1014.9
20260831190221 23 148 4.8 8.0 0.00 0.15 0.15 91 1015.0
20260831185716 23 84 1.6 3.2 0.00 0.15 0.15 94 1015.2
20260831185211 22 89 0.0 0.0 0.00 0.15 0.15 97 1015.4
20260831184710 22 67 4.8 8.0 0.00 0.15 0.15 97 1015.5
20260831184207 22 69 1.6 3.2 0.00 0.15 0.15 98 1015.8
20260831183705 22 56 4.8 8.0 0.00 0.15 0.15 99 1015.6
20260831183200 22 96 1.6 3.2 0.00 0.15 0.15 99 1015.6
20260831182659 22 65 3.2 8.0 0.00 0.15 0.15 99 1015.6
20260831182155 22 71 3.2 4.8 0.00 0.15 0.15 99 1015.9
20260831181649 22 73 8.0 8.0 0.00 0.15 0.15 99 1015.7
20260831181144 21 89 4.8 4.8 0.00 0.15 0.15 99 1015.8
20260831180639 21 62 6.4 9.7 0.00 0.15 0.15 99 1015.7
20260831180134 22 81 0.0 1.6 0.00 0.15 0.15 99 1015.7
20260831175628 22 62 1.6 3.2 0.00 0.15 0.15 99 1015.7
20260831175126 22 93 3.2 4.8 0.00 0.15 0.15 99 1015.9
20260831174625 22 38 0.0 0.0 0.00 0.15 0.15 99 1015.7
20260831174120 22 45 0.0 0.0 0.00 0.15 0.15 99 1015.4
20260831173619 22 45 0.0 0.0 0.00 0.15 0.15 99 1015.5
20260831173115 22 212 0.0 0.0 0.00 0.15 0.15 99 1015.1
20260831172615 21 313 0.0 0.0 0.00 0.15 0.15 99 1015.2
20260831172114 21 288 0.0 0.0 0.00 0.15 0.15 99 1015.5
20260831171610 21 327 0.0 0.0 0.00 0.15 0.15 99 1015.1
20260831171108 21 30 0.0 0.0 0.00 0.15 0.15 99 1015.5
20260831170603 21 84 1.6 3.2 0.00 0.15 0.15 99 1015.5
20260831170101 21 243 0.0 0.0 0.00 0.15 0.15 99 1015.2
20260831165555 21 3 0.0 0.0 0.00 0.15 0.15 99 1015.1
20260831165052 21 41 0.0 0.0 0.00 0.15 0.15 99 1015.3
20260831164548 21 75 0.0 0.0 0.00 0.15 0.15 99 1015.3
20260831164043 21 49 0.0 0.0 0.00 0.15 0.15 99 1015.3
20260831163537 21 352 0.0 0.0 0.00 0.15 0.15 99 1015.5
20260831163033 21 78 0.0 0.0 0.00 0.15 0.15 99 1015.4
20260831162532 21 329 0.0 0.0 0.00 0.15 0.15 99 1015.7
20260831162030 21 275 0.0 0.0 0.00 0.15 0.15 99 1015.8
20260831161527 21 307 0.0 0.0 0.00 0.15 0.15 99 1016.1
20260831161023 21 285 0.0 0.0 0.13 0.15 0.15 99 1016.2
20260831160522 21 275 0.0 0.0 0.30 0.15 0.15 99 1016.6
20260831160018 21 254 0.0 0.0 0.36 0.13 0.13 99 1017.1
20260831155512 21 353 0.0 0.0 0.48 0.10 0.10 99 1016.9
20260831155007 21 214 1.6 1.6 0.30 0.08 0.08 98 1017.1
20260831154504 22 260 0.0 0.0 0.00 0.03 0.03 98 1017.2
20260831154003 22 278 0.0 0.0 0.13 0.03 0.03 96 1017.6
20260831153457 22 232 1.6 3.2 0.13 0.03 0.03 96 1017.7
20260831152954 22 243 1.6 1.6 0.00 0.00 0.00 95 1017.6
20260831152449 22 231 0.0 0.0 0.00 0.00 0.00 94 1017.7
20260831151944 22 289 1.6 1.6 0.00 0.00 0.00 93 1017.7
20260831151443 23 307 0.0 0.0 0.00 0.00 0.00 93 1017.4
20260831150939 23 311 3.2 3.2 0.00 0.00 0.00 92 1016.9
20260831150434 23 285 3.2 3.2 0.00 0.00 0.00 91 1016.8
20260831145933 23 232 4.8 4.8 0.00 0.00 0.00 91 1016.4
20260831145430 23 249 1.6 1.6 0.00 0.00 0.00 91 1016.3
20260831144925 22 293 3.2 3.2 0.00 0.00 0.00 92 1016.4
20260831144415 22 276 4.8 8.0 0.00 0.00 0.00 92 1016.3
20260831143910 22 288 1.6 1.6 0.00 0.00 0.00 93 1016.2
20260831143405 22 292 0.0 0.0 0.00 0.00 0.00 93 1016.3
20260831142901 22 301 0.0 0.0 0.00 0.00 0.00 93 1016.2
20260831142356 22 278 1.6 1.6 0.00 0.00 0.00 93 1016.0
20260831141850 22 299 3.2 3.2 0.00 0.00 0.00 93 1016.0
20260831141344 22 264 1.6 1.6 0.00 0.00 0.00 93 1015.9
20260831140839 22 280 0.0 1.6 0.00 0.00 0.00 94 1015.6
20260831140334 22 263 0.0 0.0 0.00 0.00 0.00 94 1015.9
20260831135832 22 278 0.0 0.0 0.00 0.00 0.00 94 1016.0
20260831135328 22 243 0.0 0.0 0.00 0.00 0.00 94 1015.6
20260831134823 22 240 0.0 1.6 0.00 0.00 0.00 93 1015.8
20260831134320 22 292 3.2 3.2 0.00 0.00 0.00 93 1015.8
20260831133819 22 238 3.2 3.2 0.00 0.00 0.00 93 1015.8
20260831133318 22 264 0.0 1.6 0.00 0.00 0.00 93 1015.8
20260831132814 22 277 3.2 3.2 0.00 0.00 0.00 93 1015.8
20260831132309 22 316 1.6 1.6 0.00 0.00 0.00 92 1015.8
20260831131803 22 287 1.6 1.6 0.00 0.00 0.00 93 1015.9
20260831131259 22 305 4.8 4.8 0.00 0.00 0.00 93 1015.7
20260831130754 22 282 0.0 0.0 0.00 0.00 0.00 94 1015.9
20260831130249 22 298 0.0 0.0 0.00 0.00 0.00 95 1015.7
20260831125748 21 283 0.0 1.6 0.00 0.00 0.00 95 1015.8
20260831125244 21 278 0.0 0.0 0.00 0.00 0.00 96 1015.7
20260831124738 21 295 0.0 1.6 0.00 0.00 0.00 97 1015.6
20260831124235 21 308 0.0 0.0 0.00 0.00 0.00 98 1015.5
20260831123734 21 272 0.0 0.0 0.00 0.00 0.00 99 1015.3
20260831123233 21 293 0.0 0.0 0.00 0.00 0.00 99 1015.3
20260831122728 21 294 0.0 0.0 0.00 0.00 0.00 99 1015.3
20260831122224 21 326 0.0 0.0 0.00 0.00 0.00 99 1015.5
20260831121722 20 281 0.0 0.0 0.00 0.00 0.00 99 1015.4
20260831121220 20 279 0.0 0.0 0.00 0.00 0.00 99 1015.4
20260831120715 20 285 0.0 0.0 0.00 0.00 0.00 99 1015.7
20260831120209 20 299 0.0 0.0 0.00 0.00 0.00 99 1015.5
20260831115705 20 300 0.0 0.0 0.00 0.00 0.00 99 1015.5
20260831115201 20 296 0.0 0.0 0.00 0.00 0.00 99 1015.5
20260831114700 20 297 0.0 0.0 0.00 0.00 0.00 99 1015.7
20260831114159 20 297 0.0 0.0 0.00 0.00 0.00 99 1015.5
20260831113654 20 298 0.0 0.0 0.00 0.00 0.00 99 1015.5
20260831113149 20 298 0.0 0.0 0.00 0.00 0.00 99 1015.4
20260831112648 20 333 0.0 0.0 0.00 0.00 0.00 99 1015.4
20260831112144 20 295 0.0 0.0 0.00 0.00 0.00 99 1015.5
20260831111639 20 291 0.0 0.0 0.00 0.00 0.00 99 1015.5
20260831111135 20 290 0.0 0.0 0.00 0.00 0.00 99 1015.5
20260831110631 20 286 0.0 0.0 0.00 0.00 0.00 99 1015.6
20260831110126 20 286 0.0 0.0 0.00 0.00 0.00 99 1015.8
20260831105625 20 285 0.0 0.0 0.00 0.00 0.00 99 1015.8
20260831105120 20 292 0.0 0.0 0.00 0.00 0.00 99 1015.8
20260831104615 20 281 0.0 0.0 0.00 0.00 0.00 99 1015.9
20260831104112 20 313 0.0 0.0 0.00 0.00 0.00 99 1015.9
20260831103606 20 320 0.0 0.0 0.00 0.00 0.00 99 1015.7
20260831103057 20 318 0.0 0.0 0.00 0.00 0.00 99 1015.6
20260831102556 20 309 0.0 0.0 0.00 0.00 0.00 99 1015.8
20260831102052 20 298 0.0 0.0 0.00 0.00 0.00 99 1015.7
20260831101546 20 318 0.0 0.0 0.00 0.00 0.00 99 1015.6
20260831101043 19 312 0.0 0.0 0.00 0.00 0.00 99 1015.9
20260831100538 19 312 0.0 0.0 0.00 0.00 0.00 99 1015.7
20260831100034 19 316 0.0 0.0 0.00 0.00 0.00 99 1015.6
20260831095532 19 305 0.0 0.0 0.00 0.00 0.00 99 1015.7
20260831095032 19 289 0.0 0.0 0.00 0.00 0.00 99 1015.3
20260831094529 19 295 0.0 0.0 0.00 0.00 0.00 99 1015.4
20260831094024 19 289 0.0 0.0 0.00 0.00 0.00 99 1015.6
20260831093519 19 303 0.0 0.0 0.00 0.00 0.00 99 1015.4
20260831093016 19 285 0.0 0.0 0.00 0.00 0.00 99 1015.6
20260831092511 19 299 0.0 0.0 0.00 0.00 0.00 99 1015.6
20260831092007 19 317 0.0 0.0 0.00 0.00 0.00 99 1015.6
20260831091502 19 317 0.0 0.0 0.00 0.00 0.00 99 1015.5
20260831090956 19 311 0.0 0.0 0.00 0.00 0.00 99 1015.6
20260831090453 19 304 0.0 0.0 0.00 0.00 0.00 99 1015.6
20260831085948 19 287 0.0 0.0 0.00 0.00 0.00 99 1015.4
20260831085444 19 343 0.0 0.0 0.00 0.00 0.00 99 1015.3
20260831084943 19 328 0.0 0.0 0.00 0.00 0.00 99 1015.5
20260831084439 19 291 0.0 0.0 0.00 0.00 0.00 99 1015.4
20260831083936 19 303 0.0 0.0 0.00 0.00 0.00 99 1015.2
20260831083430 19 289 0.0 0.0 0.00 0.00 0.00 99 1015.5
20260831082929 19 309 0.0 0.0 0.00 0.00 0.00 99 1015.2
20260831082424 19 309 0.0 0.0 0.00 0.00 0.00 99 1015.0
20260831081919 19 299 0.0 0.0 0.00 0.00 0.00 99 1015.1
20260831081415 19 280 0.0 0.0 0.00 0.00 0.00 99 1015.1
20260831080911 19 304 0.0 0.0 0.00 0.00 0.00 99 1015.0
20260831080406 19 328 0.0 0.0 0.00 0.00 0.00 99 1015.1
20260831075901 19 310 0.0 0.0 0.00 0.00 0.00 99 1014.9
20260831075356 19 301 0.0 0.0 0.00 0.00 0.00 99 1015.1
20260831074851 20 290 0.0 0.0 0.00 0.00 0.00 99 1015.0
20260831074350 20 295 0.0 0.0 0.00 0.00 0.00 99 1015.0
20260831073846 20 305 0.0 0.0 0.00 0.00 0.00 98 1015.2
20260831073345 20 322 0.0 0.0 0.00 0.00 0.00 98 1015.1
20260831072840 20 292 0.0 0.0 0.00 0.00 0.00 97 1015.3
20260831072336 20 292 0.0 0.0 0.00 0.00 0.00 96 1015.3
20260831071832 20 313 0.0 0.0 0.00 0.00 0.00 96 1015.4
20260831071331 20 285 0.0 0.0 0.00 0.00 0.00 96 1015.4
20260831070826 20 283 0.0 0.0 0.00 0.00 0.00 96 1015.3
20260831070325 20 329 0.0 0.0 0.00 0.00 0.00 97 1015.7
20260831065824 20 251 0.0 0.0 0.00 0.00 0.00 97 1015.5
20260831065322 20 315 0.0 0.0 0.00 0.00 0.00 97 1015.3
20260831064817 20 315 0.0 1.6 0.00 0.00 0.00 97 1015.8
20260831064313 20 319 0.0 0.0 0.00 0.00 0.00 96 1015.7
20260831063809 20 292 0.0 0.0 0.00 0.00 0.00 96 1015.6
20260831063304 20 285 0.0 0.0 0.00 0.00 0.00 95 1015.6
20260831062803 21 287 0.0 0.0 0.00 0.00 0.00 95 1015.8
20260831062258 21 274 0.0 0.0 0.00 0.00 0.00 95 1015.6
20260831061756 21 286 0.0 0.0 0.00 0.00 0.00 94 1015.7
20260831061251 21 297 0.0 0.0 0.00 0.00 0.00 94 1016.1
20260831060748 21 293 0.0 0.0 0.00 0.00 0.00 94 1015.9
20260831060247 21 280 0.0 1.6 0.00 0.00 0.00 94 1015.9
20260831055747 21 293 0.0 0.0 0.00 0.00 0.00 94 1016.0
20260831055242 21 271 1.6 3.2 0.00 0.00 0.00 94 1016.2
20260831054737 21 279 0.0 0.0 0.00 0.00 0.00 94 1016.0
20260831054232 21 296 0.0 0.0 0.00 0.00 0.00 93 1016.0
20260831053731 21 286 0.0 0.0 0.00 0.00 0.00 93 1015.8
20260831053230 21 258 1.6 3.2 0.00 0.00 0.00 93 1015.8
20260831052729 21 287 0.0 0.0 0.00 0.00 0.00 92 1016.1
20260831052223 21 271 0.0 1.6 0.00 0.00 0.00 92 1015.9
20260831051722 21 340 0.0 0.0 0.00 0.00 0.00 92 1015.9
20260831051220 21 265 1.6 1.6 0.00 0.00 0.00 92 1016.0
20260831050715 21 290 1.6 1.6 0.00 0.00 0.00 92 1015.9
20260831050214 22 336 0.0 0.0 0.00 0.00 0.00 91 1016.0
20260831045709 22 304 0.0 1.6 0.00 0.00 0.00 91 1015.8
20260831045203 22 280 1.6 3.2 0.00 0.00 0.00 91 1015.9
20260831044658 22 242 8.0 11.3 0.00 0.00 0.00 91 1015.6
20260831044154 22 269 0.0 0.0 0.00 0.00 0.00 92 1016.0
20260831043649 22 295 0.0 0.0 0.00 0.00 0.00 92 1015.9
20260831043144 22 257 0.0 1.6 0.00 0.00 0.00 92 1015.9
20260831042643 22 277 3.2 3.2 0.00 0.00 0.00 93 1015.9
20260831042138 22 220 1.6 3.2 0.00 0.00 0.00 93 1015.6
20260831041632 21 308 3.2 3.2 0.00 0.00 0.00 93 1015.6
20260831041127 21 280 1.6 1.6 0.00 0.00 0.00 94 1015.8
20260831040622 21 295 3.2 4.8 0.00 0.00 0.00 94 1015.8
20260831040121 21 261 1.6 1.6 0.00 0.00 0.00 94 1015.9
20260831035620 21 285 3.2 3.2 0.00 2.57 2.57 94 1015.8
20260831035115 21 294 1.6 1.6 0.00 2.57 2.57 94 1016.0
20260831034614 21 217 1.6 1.6 0.00 2.57 2.57 94 1016.0
20260831034109 21 21 0.0 1.6 0.00 2.57 2.57 93 1015.9
20260831033605 21 266 1.6 1.6 0.00 2.57 2.57 94 1015.9
20260831033100 21 228 0.0 0.0 0.00 2.57 2.57 94 1015.9
20260831032559 21 66 0.0 0.0 0.00 2.57 2.57 94 1015.8
20260831032055 21 288 0.0 0.0 0.00 2.57 2.57 94 1015.9
20260831031554 21 254 0.0 0.0 0.00 2.57 2.57 94 1015.9
20260831031054 21 260 0.0 0.0 0.00 2.57 2.57 94 1015.7
20260831030553 21 252 0.0 0.0 0.00 2.57 2.57 94 1015.7
20260831030052 21 14 0.0 0.0 0.00 2.57 2.57 94 1015.7
20260831025551 21 297 1.6 3.2 0.00 2.57 2.57 94 1015.9
20260831025046 21 58 0.0 1.6 0.00 2.57 2.57 94 1015.9
20260831024542 21 312 0.0 1.6 0.00 2.57 2.57 94 1015.8
20260831024041 21 298 1.6 1.6 0.00 2.57 2.57 94 1015.7
20260831023539 21 189 0.0 0.0 0.00 2.57 2.57 94 1015.5
20260831023034 21 305 0.0 0.0 0.00 2.57 2.57 93 1015.7
20260831022533 21 320 0.0 0.0 0.00 2.57 2.57 93 1015.3
20260831022029 21 27 0.0 0.0 0.00 2.57 2.57 93 1015.3
20260831021527 21 22 0.0 0.0 0.00 2.57 2.57 93 1015.4
20260831021024 21 301 1.6 1.6 0.00 2.57 2.57 93 1015.4
20260831020519 21 30 0.0 0.0 0.00 2.57 2.57 92 1015.6
20260831020014 21 280 0.0 0.0 0.00 2.57 2.57 92 1015.3
20260831015509 21 144 0.0 1.6 0.00 2.57 2.57 92 1015.3
20260831015004 21 100 3.2 3.2 0.00 2.57 2.57 92 1015.5
20260831014458 21 71 0.0 0.0 0.00 2.57 2.57 92 1015.5
20260831013954 21 265 0.0 0.0 0.00 2.57 2.57 91 1015.2
20260831013450 21 313 0.0 0.0 0.00 2.57 2.57 91 1015.2
20260831012943 21 314 0.0 0.0 0.00 2.57 2.57 91 1015.1
20260831012439 21 287 1.6 1.6 0.00 2.57 2.57 91 1015.0